CW8248 Weather Reports


Display with metric or nautical units.
time (UTC)temp
F
wind
direction
speed
MPH
gust
MPH
rain 1hr
in
rain 24hr
in
rain mn
in
humidity
%
barometer
mb
20260904220038 66 250 4.0 7.0 0.00 0.03 0.03 52 1013.4
20260904215539 66 255 4.0 8.0 0.00 0.03 0.03 53 1013.4
20260904215036 66 246 2.0 5.0 0.00 0.03 0.03 51 1013.4
20260904214536 66 242 2.0 5.0 0.00 0.03 0.03 53 1013.4
20260904214036 66 242 3.0 5.0 0.00 0.03 0.03 49 1013.3
20260904213536 66 242 3.0 5.0 0.00 0.03 0.03 52 1013.3
20260904213036 66 242 3.0 5.0 0.00 0.03 0.03 50 1013.3
20260904212536 65 242 3.0 5.0 0.00 0.03 0.03 51 1013.2
20260904212037 65 242 3.0 5.0 0.00 0.03 0.03 52 1013.2
20260904211536 65 242 1.0 5.0 0.00 0.03 0.03 51 1013.2
20260904211036 66 242 3.0 5.0 0.00 0.03 0.03 52 1013.2
20260904210536 66 242 3.0 5.0 0.00 0.03 0.03 49 1013.1
20260904210035 66 242 2.0 4.0 0.00 0.03 0.03 50 1013.1
20260904205535 66 242 2.0 4.0 0.00 0.03 0.03 51 1013.1
20260904205035 67 242 2.0 6.0 0.00 0.03 0.03 48 1013.2
20260904204535 67 242 3.0 7.0 0.00 0.03 0.03 46 1013.1
20260904204036 70 236 5.0 7.0 0.00 0.03 0.03 46 1013.2
20260904203537 69 237 5.0 7.0 0.00 0.03 0.03 49 1013.2
20260904203034 67 237 4.0 7.0 0.00 0.03 0.03 54 1013.2
20260904202534 66 237 4.0 7.0 0.00 0.03 0.03 57 1013.2
20260904202033 66 237 3.0 7.0 0.00 0.03 0.03 57 1013.3
20260904201533 66 238 4.0 7.0 0.00 0.03 0.03 59 1013.3
20260904201033 64 235 3.0 6.0 0.00 0.03 0.03 61 1013.3
20260904200533 63 235 2.0 4.0 0.00 0.03 0.03 63 1013.4
20260904200033 63 235 3.0 4.0 0.00 0.03 0.03 60 1013.4
20260904195535 64 235 2.0 5.0 0.00 0.03 0.03 62 1013.5
20260904195033 64 234 2.0 6.0 0.00 0.03 0.03 61 1013.6
20260904194533 63 234 4.0 6.0 0.00 0.03 0.03 61 1013.7
20260904194032 62 231 3.0 6.0 0.00 0.03 0.03 60 1013.7
20260904193534 62 219 3.0 5.0 0.00 0.03 0.03 62 1013.8
20260904193038 63 218 3.0 5.0 0.00 0.03 0.03 62 1013.8
20260904192531 64 217 2.0 4.0 0.00 0.03 0.03 57 1013.9
20260904192034 66 217 2.0 5.0 0.00 0.03 0.03 60 1013.9
20260904191532 68 217 3.0 5.0 0.00 0.03 0.03 53 1014.0
20260904191031 69 218 2.0 6.0 0.00 0.03 0.03 52 1014.0
20260904190529 68 223 3.0 6.0 0.00 0.03 0.03 62 1014.0
20260904190037 63 223 2.0 4.0 0.00 0.03 0.03 67 1014.1
20260904185526 62 225 1.0 3.0 0.00 0.03 0.03 72 1014.2
20260904185026 59 225 0.0 3.0 0.00 0.03 0.03 68 1014.2
20260904184528 59 225 1.0 5.0 0.00 0.03 0.03 67 1014.2
20260904184026 60 225 2.0 5.0 0.00 0.03 0.03 72 1014.2
20260904183526 60 225 1.0 4.0 0.00 0.03 0.03 71 1014.2
20260904183026 58 225 0.0 3.0 0.00 0.03 0.03 69 1014.2
20260904182527 59 225 1.0 3.0 0.00 0.03 0.03 68 1014.2
20260904182024 59 225 1.0 3.0 0.00 0.03 0.03 69 1014.1
20260904181524 59 225 1.0 2.0 0.00 0.03 0.03 73 1014.1
20260904181024 58 225 0.0 1.0 0.00 0.03 0.03 71 1014.1
20260904180524 57 225 0.0 2.0 0.00 0.03 0.03 67 1014.1
20260904180024 58 225 0.0 1.0 0.00 0.03 0.03 74 1014.1
20260904175523 57 225 0.0 2.0 0.00 0.03 0.03 70 1014.1
20260904175026 57 225 0.0 4.0 0.00 0.03 0.03 71 1014.1
20260904174523 57 225 0.0 4.0 0.00 0.03 0.03 70 1014.2
20260904174024 57 225 1.0 4.0 0.00 0.03 0.03 75 1014.2
20260904173522 57 225 0.0 4.0 0.00 0.03 0.03 72 1014.2
20260904173023 58 225 1.0 6.0 0.00 0.03 0.03 73 1014.2
20260904172522 58 225 2.0 6.0 0.00 0.03 0.03 74 1014.1
20260904172021 58 225 3.0 5.0 0.00 0.03 0.03 72 1014.1
20260904171522 59 225 2.0 7.0 0.00 0.03 0.03 72 1014.1
20260904171024 60 225 5.0 7.0 0.00 0.03 0.03 71 1014.1
20260904170521 61 224 4.0 7.0 0.00 0.03 0.03 70 1014.1
20260904170020 58 229 3.0 6.0 0.00 0.03 0.03 77 1014.1
20260904165519 57 234 3.0 6.0 0.00 0.03 0.03 74 1014.0
20260904165019 57 234 3.0 5.0 0.00 0.03 0.03 77 1014.1
20260904164519 57 230 3.0 5.0 0.00 0.03 0.03 75 1014.1
20260904164017 56 229 1.0 4.0 0.00 0.03 0.03 76 1014.0
20260904163518 57 229 2.0 4.0 0.00 0.03 0.03 76 1014.0
20260904163020 57 210 2.0 4.0 0.00 0.03 0.03 79 1014.0
20260904162517 57 221 2.0 5.0 0.00 0.03 0.03 79 1014.0
20260904162016 58 221 2.0 5.0 0.00 0.03 0.03 78 1014.0
20260904161515 57 221 1.0 4.0 0.00 0.03 0.03 79 1014.1
20260904161016 57 221 3.0 4.0 0.00 0.03 0.03 81 1014.1
20260904160514 57 246 2.0 4.0 0.00 0.03 0.03 81 1014.1
20260904160016 56 61 0.0 2.0 0.00 0.03 0.03 77 1014.1
20260904155513 57 61 0.0 3.0 0.00 0.03 0.03 79 1014.1
20260904155011 56 61 0.0 3.0 0.00 0.03 0.03 81 1014.1
20260904154509 55 61 0.0 2.0 0.00 0.03 0.03 83 1014.1
20260904154008 54 61 0.0 2.0 0.00 0.03 0.03 84 1014.1
20260904153506 53 61 0.0 2.0 0.00 0.03 0.03 85 1014.0
20260904153005 52 61 0.0 0.0 0.00 0.03 0.03 85 1014.0
20260904152503 51 61 0.0 0.0 0.00 0.03 0.03 85 1014.0
20260904152003 50 61 0.0 0.0 0.00 0.03 0.03 85 1013.9
20260904151502 50 61 0.0 0.0 0.00 0.03 0.03 85 1013.9
20260904151105 50 61 0.0 2.0 0.00 0.03 0.03 85 1013.9
20260904150600 50 61 0.0 2.0 0.00 0.03 0.03 84 1013.8
20260904150109 50 61 0.0 2.0 0.01 0.03 0.03 84 1013.8
20260904145558 50 61 0.0 1.0 0.01 0.03 0.03 85 1013.8
20260904145057 50 61 0.0 2.0 0.01 0.03 0.03 85 1013.7
20260904144555 49 61 0.0 2.0 0.01 0.03 0.03 85 1013.7
20260904144053 49 61 0.0 2.0 0.01 0.03 0.03 85 1013.7
20260904143553 49 61 0.0 2.0 0.01 0.03 0.03 85 1013.6
20260904143052 49 61 0.0 1.0 0.02 0.03 0.03 85 1013.5
20260904142552 49 61 0.0 1.0 0.02 0.03 0.03 85 1013.5
20260904142051 49 61 0.0 2.0 0.02 0.03 0.03 85 1013.3
20260904141555 49 61 0.0 2.0 0.02 0.03 0.03 85 1013.4
20260904141050 49 61 0.0 2.0 0.02 0.03 0.03 85 1013.3
20260904140549 49 61 0.0 2.0 0.02 0.03 0.03 85 1013.3
20260904135549 48 61 0.0 0.0 0.01 0.02 0.02 85 1013.1
20260904135045 48 61 0.0 1.0 0.01 0.02 0.02 84 1013.1
20260904134548 48 61 0.0 2.0 0.01 0.02 0.02 84 1013.1
20260904134043 48 61 0.0 1.0 0.01 0.02 0.02 84 1012.9
20260904133542 48 61 0.0 2.0 0.01 0.02 0.02 84 1012.9
20260904133042 48 61 0.0 2.0 0.00 0.01 0.01 84 1012.8
20260904132542 48 61 0.0 3.0 0.00 0.01 0.01 84 1012.8
20260904132041 48 58 0.0 3.0 0.00 0.01 0.01 84 1012.8
20260904131541 48 46 0.0 3.0 0.00 0.01 0.01 84 1012.8
20260904131040 48 46 0.0 1.0 0.00 0.01 0.01 84 1012.8
20260904130540 48 46 0.0 0.0 0.00 0.01 0.01 83 1012.7
20260904130056 48 46 0.0 0.0 0.00 0.01 0.01 83 1012.7
20260904125539 48 46 0.0 0.0 0.00 0.01 0.01 83 1012.6
20260904125038 48 46 0.0 0.0 0.00 0.01 0.01 83 1012.7
20260904124545 48 46 0.0 1.0 0.00 0.01 0.01 83 1012.6
20260904124043 48 46 0.0 2.0 0.00 0.01 0.01 83 1012.6
20260904123540 48 46 0.0 2.0 0.00 0.01 0.01 84 1012.6
20260904123037 48 46 0.0 1.0 0.00 0.01 0.01 84 1012.6
20260904122536 48 46 0.0 1.0 0.00 0.01 0.01 84 1012.5
20260904122035 48 46 0.0 1.0 0.00 0.01 0.01 84 1012.5
20260904121536 48 46 0.0 0.0 0.00 0.01 0.01 84 1012.4
20260904121038 48 46 0.0 0.0 0.00 0.01 0.01 84 1012.4
20260904120535 48 46 0.0 1.0 0.00 0.01 0.01 84 1012.4
20260904120038 48 46 0.0 1.0 0.00 0.01 0.01 84 1012.4
20260904115534 48 46 0.0 1.0 0.00 0.01 0.01 84 1012.4
20260904115033 48 46 0.0 1.0 0.00 0.01 0.01 84 1012.3
20260904114533 48 46 0.0 1.0 0.00 0.01 0.01 84 1012.2
20260904114036 48 46 0.0 1.0 0.00 0.01 0.01 84 1012.2
20260904113532 48 46 0.0 1.0 0.01 0.01 0.01 84 1012.3
20260904113037 48 46 0.0 2.0 0.01 0.01 0.01 84 1012.2
20260904112531 48 46 0.0 2.0 0.01 0.01 0.01 84 1012.2
20260904112029 48 46 0.0 1.0 0.01 0.01 0.01 84 1012.1
20260904111529 48 46 0.0 1.0 0.01 0.01 0.01 83 1012.1
20260904111029 48 46 0.0 1.0 0.01 0.01 0.01 83 1012.0
20260904110530 48 46 0.0 2.0 0.01 0.01 0.01 83 1012.0
20260904110028 48 46 1.0 2.0 0.01 0.01 0.01 83 1012.0
20260904105528 48 46 0.0 2.0 0.01 0.01 0.01 83 1011.9
20260904105027 49 46 1.0 2.0 0.01 0.01 0.01 82 1011.9
20260904104529 49 46 1.0 2.0 0.01 0.01 0.01 82 1011.9
20260904104026 49 46 1.0 2.0 0.01 0.01 0.01 81 1011.8
20260904103525 49 46 0.0 1.0 0.00 0.00 0.00 81 1011.8
20260904103025 49 46 0.0 1.0 0.00 0.00 0.00 81 1011.7
20260904102525 49 46 0.0 2.0 0.00 0.00 0.00 81 1011.7
20260904102024 49 46 0.0 3.0 0.00 0.00 0.00 81 1011.7
20260904101524 49 46 0.0 3.0 0.00 0.00 0.00 82 1011.6
20260904101024 49 31 1.0 3.0 0.00 0.00 0.00 82 1011.6
20260904100526 49 2 1.0 2.0 0.00 0.00 0.00 82 1011.5
20260904100022 49 2 0.0 2.0 0.00 0.01 0.00 82 1011.4
20260904095524 49 2 0.0 2.0 0.00 0.01 0.00 83 1011.4
20260904095020 49 2 0.0 1.0 0.00 0.01 0.00 83 1011.3
20260904094520 49 2 0.0 1.0 0.00 0.01 0.00 83 1011.2
20260904094020 49 2 0.0 1.0 0.00 0.01 0.00 83 1011.2
20260904093521 48 2 0.0 1.0 0.00 0.01 0.00 83 1011.3
20260904093024 48 2 0.0 2.0 0.00 0.01 0.00 83 1011.3
20260904092519 48 2 0.0 2.0 0.00 0.01 0.00 83 1011.2
20260904092021 48 2 0.0 1.0 0.00 0.01 0.00 83 1011.3
20260904091522 49 2 0.0 1.0 0.00 0.01 0.00 82 1011.2
20260904091018 49 2 0.0 2.0 0.00 0.01 0.00 82 1011.3
20260904090518 49 2 0.0 1.0 0.00 0.01 0.00 82 1011.2
20260904090016 49 2 0.0 6.0 0.00 0.01 0.00 82 1011.2
20260904085517 49 4 2.0 6.0 0.00 0.01 0.00 82 1011.2
20260904085017 49 56 0.0 2.0 0.00 0.01 0.00 82 1011.2
20260904084514 49 56 0.0 2.0 0.00 0.01 0.00 81 1011.1
20260904084015 49 56 0.0 2.0 0.00 0.01 0.00 81 1011.1
20260904083513 49 56 0.0 1.0 0.00 0.01 0.00 81 1011.0
20260904083013 49 56 0.0 1.0 0.00 0.01 0.00 81 1011.0
20260904082512 49 56 0.0 2.0 0.00 0.01 0.00 81 1011.0
20260904082011 49 56 0.0 2.0 0.00 0.01 0.00 80 1010.9
20260904081511 50 56 0.0 2.0 0.00 0.01 0.00 80 1010.9
20260904081010 50 56 0.0 2.0 0.00 0.01 0.00 80 1011.0
20260904080510 50 56 1.0 2.0 0.00 0.01 0.00 80 1011.0
20260904080014 50 56 1.0 3.0 0.00 0.01 0.00 79 1011.0
20260904075509 50 56 1.0 5.0 0.00 0.01 0.00 79 1010.9
20260904075009 50 55 3.0 5.0 0.00 0.01 0.00 79 1010.9
20260904074507 50 53 1.0 2.0 0.00 0.01 0.00 79 1011.0
20260904074014 50 53 1.0 2.0 0.00 0.01 0.00 78 1011.0
20260904073507 51 53 0.0 2.0 0.00 0.01 0.00 78 1011.0
20260904073006 51 53 0.0 2.0 0.00 0.01 0.00 78 1011.0
20260904072505 51 53 0.0 2.0 0.00 0.01 0.00 78 1010.9
20260904072005 51 53 0.0 0.0 0.00 0.01 0.00 78 1010.9
20260904071507 51 53 0.0 0.0 0.00 0.01 0.00 78 1010.9
20260904071004 51 53 0.0 1.0 0.00 0.01 0.00 78 1010.9
20260904070504 51 53 0.0 1.0 0.00 0.01 0.00 78 1010.8
20260904070008 51 53 0.0 0.0 0.00 0.01 0.01 78 1010.8
20260904065503 51 53 0.0 1.0 0.00 0.01 0.01 78 1010.7
20260904065003 51 53 0.0 1.0 0.00 0.01 0.01 78 1010.7
20260904064504 51 53 0.0 3.0 0.00 0.01 0.01 78 1010.7
20260904064003 51 53 1.0 3.0 0.00 0.01 0.01 77 1010.7
20260904063503 51 53 1.0 2.0 0.00 0.01 0.01 78 1010.8
20260904063003 51 53 1.0 2.0 0.00 0.01 0.01 78 1010.7
20260904062506 51 53 0.0 2.0 0.00 0.01 0.01 78 1010.7
20260904062004 51 53 0.0 2.0 0.00 0.01 0.01 78 1010.6
20260904061506 52 53 0.0 2.0 0.00 0.01 0.01 78 1010.6
20260904061002 52 53 0.0 4.0 0.00 0.01 0.01 78 1010.6
20260904060502 52 53 1.0 4.0 0.00 0.01 0.01 77 1010.6
20260904060003 52 53 0.0 1.0 0.00 0.01 0.01 77 1010.6
20260904055503 52 53 0.0 1.0 0.00 0.01 0.01 77 1010.6
20260904055001 52 53 0.0 2.0 0.00 0.01 0.01 78 1010.6
20260904054505 52 53 0.0 2.0 0.00 0.01 0.01 77 1010.6
20260904054000 52 53 0.0 2.0 0.00 0.01 0.01 77 1010.6
20260904053501 52 53 0.0 2.0 0.00 0.01 0.01 76 1010.5
20260904053001 52 53 0.0 1.0 0.00 0.01 0.01 76 1010.5
20260904052501 52 53 0.0 5.0 0.00 0.01 0.01 76 1010.6
20260904052001 52 53 0.0 5.0 0.00 0.01 0.01 76 1010.6
20260904051501 52 4 0.0 2.0 0.00 0.01 0.01 76 1010.7
20260904051000 53 11 0.0 4.0 0.00 0.01 0.01 76 1010.6
20260904050600 53 6 0.0 4.0 0.00 0.01 0.01 75 1010.6
20260904050108 53 40 1.0 4.0 0.00 0.01 0.01 74 1010.7
20260904045600 53 46 0.0 5.0 0.00 0.01 0.01 73 1010.7
20260904045100 53 62 0.0 5.0 0.00 0.01 0.01 74 1010.7
20260904044601 54 62 2.0 4.0 0.00 0.01 0.01 74 1010.6
20260904044100 54 312 0.0 4.0 0.00 0.01 0.01 74 1010.7
20260904043601 54 312 1.0 4.0 0.00 0.01 0.01 74 1010.7
20260904043108 54 191 0.0 2.0 0.00 0.01 0.01 74 1010.6
20260904042559 54 191 0.0 6.0 0.00 0.01 0.01 74 1010.6
20260904042059 54 275 0.0 6.0 0.00 0.01 0.01 73 1010.6
20260904041559 55 357 0.0 5.0 0.00 0.01 0.01 73 1010.5
20260904041058 55 49 0.0 5.0 0.00 0.01 0.01 73 1010.5
20260904040558 55 50 2.0 5.0 0.00 0.01 0.01 73 1010.6
20260904040058 55 358 1.0 5.0 0.00 0.01 0.01 74 1010.6
20260904035558 54 340 0.0 3.0 0.00 0.01 0.01 74 1010.7
20260904035057 55 339 0.0 2.0 0.00 0.01 0.01 74 1010.7
20260904034558 55 339 0.0 2.0 0.00 0.01 0.01 73 1010.7
20260904034057 55 339 0.0 1.0 0.00 0.01 0.01 73 1010.6
20260904033558 55 339 0.0 2.0 0.00 0.01 0.01 72 1010.6
20260904033056 56 339 0.0 4.0 0.00 0.01 0.01 71 1010.5
20260904032557 56 339 0.0 4.0 0.00 0.01 0.01 72 1010.4
20260904032056 56 275 0.0 3.0 0.00 0.01 0.01 73 1010.3
20260904031557 56 275 0.0 7.0 0.00 0.01 0.01 73 1010.3
20260904031058 57 275 2.0 7.0 0.00 0.01 0.01 73 1010.3
20260904030556 57 191 1.0 6.0 0.00 0.01 0.01 73 1010.2
20260904030107 57 277 3.0 6.0 0.00 0.03 0.01 73 1010.2
20260904025557 57 276 1.0 6.0 0.00 0.03 0.01 72 1010.2
20260904025056 58 320 0.0 8.0 0.00 0.03 0.01 70 1010.2
20260904024556 58 9 1.0 8.0 0.00 0.03 0.01 69 1010.2
20260904024057 58 264 0.0 8.0 0.00 0.03 0.01 70 1010.1
20260904023554 57 308 1.0 3.0 0.00 0.03 0.01 70 1010.0
20260904023055 58 191 0.0 3.0 0.00 0.03 0.01 69 1010.0
20260904022555 58 191 0.0 3.0 0.00 0.03 0.01 70 1010.0
20260904022055 58 191 0.0 3.0 0.00 0.03 0.01 70 1010.0
20260904021557 58 191 0.0 4.0 0.00 0.03 0.01 70 1010.0
20260904021054 58 312 0.0 4.0 0.00 0.03 0.01 70 1010.0
20260904020554 57 262 0.0 2.0 0.00 0.03 0.01 71 1010.0
20260904020054 58 262 0.0 3.0 0.00 0.08 0.01 70 1010.0
20260904015554 58 260 0.0 2.0 0.00 0.08 0.01 70 1009.9
20260904015054 58 258 0.0 2.0 0.00 0.08 0.01 71 1009.9
20260904014608 58 258 0.0 2.0 0.00 0.08 0.01 72 1009.9
20260904014052 58 258 0.0 3.0 0.00 0.08 0.01 71 1009.9
20260904013553 58 258 0.0 4.0 0.00 0.08 0.01 69 1009.8
20260904013053 58 258 1.0 5.0 0.00 0.08 0.01 70 1009.8
20260904012556 59 268 1.0 9.0 0.00 0.08 0.01 68 1009.9
20260904012055 59 274 2.0 10.0 0.00 0.08 0.01 68 1009.8
20260904011553 59 302 2.0 8.0 0.00 0.08 0.01 68 1009.8
20260904011052 59 261 1.0 7.0 0.00 0.08 0.01 67 1009.8
20260904010552 59 271 3.0 7.0 0.00 0.08 0.01 66 1009.8
20260904010052 60 279 3.0 11.0 0.00 0.12 0.01 67 1009.8
20260904005553 60 191 5.0 11.0 0.00 0.12 0.01 67 1009.8
20260904005051 60 246 4.0 12.0 0.00 0.12 0.01 67 1009.8
20260904004551 61 253 3.0 13.0 0.00 0.12 0.01 66 1009.7
20260904004056 61 254 3.0 13.0 0.00 0.12 0.01 67 1009.8
20260904003551 63 223 4.0 7.0 0.00 0.12 0.01 63 1009.7
20260904003050 63 213 4.0 5.0 0.00 0.12 0.01 65 1009.7
20260904002553 62 237 1.0 5.0 0.00 0.12 0.01 64 1009.6
20260904002051 62 237 1.0 5.0 0.00 0.12 0.01 63 1009.7
20260904001553 62 244 1.0 5.0 0.00 0.12 0.01 64 1009.7
20260904001051 62 233 1.0 7.0 0.00 0.12 0.01 64 1009.7
20260904000553 62 248 1.0 7.0 0.00 0.12 0.01 68 1009.7
20260904000051 60 257 1.0 8.0 0.00 0.14 0.01 71 1009.7
20260903235553 60 240 2.0 8.0 0.00 0.14 0.01 72 1009.8
20260903235050 59 191 2.0 6.0 0.00 0.14 0.01 73 1009.9
20260903234550 59 191 1.0 9.0 0.00 0.14 0.01 70 1009.8
20260903234050 60 219 4.0 9.0 0.00 0.14 0.01 69 1009.8
20260903233550 60 191 1.0 10.0 0.00 0.14 0.01 63 1009.8
20260903233051 60 275 3.0 9.0 0.00 0.14 0.01 64 1009.9
20260903232550 60 191 1.0 8.0 0.00 0.14 0.01 63 1009.9
20260903232052 61 250 3.0 9.0 0.00 0.14 0.01 63 1009.9
20260903231600 61 259 2.0 10.0 0.00 0.14 0.01 63 1010.0
20260903231049 61 191 2.0 10.0 0.00 0.14 0.01 63 1010.0
20260903230549 61 308 1.0 9.0 0.00 0.14 0.01 61 1010.0
20260903230052 61 350 4.0 13.0 0.00 0.15 0.01 64 1010.0
20260903225549 62 267 6.0 16.0 0.00 0.15 0.01 62 1010.1
20260903225048 64 191 8.0 16.0 0.00 0.15 0.01 61 1010.0
20260903224548 64 253 5.0 12.0 0.00 0.15 0.01 58 1009.9
20260903224048 64 191 2.0 12.0 0.00 0.15 0.01 60 1009.9
20260903223548 64 275 3.0 14.0 0.00 0.15 0.01 60 1009.9
20260903223048 64 191 7.0 18.0 0.00 0.15 0.01 60 1009.9
20260903222552 65 252 8.0 17.0 0.00 0.15 0.01 59 1009.8
20260903222049 66 273 5.0 17.0 0.00 0.15 0.01 57 1009.8
20260903221548 65 242 9.0 16.0 0.00 0.15 0.01 57 1009.8
20260903221047 64 263 10.0 18.0 0.00 0.15 0.01 60 1009.8
20260903220547 64 244 8.0 21.0 0.00 0.15 0.01 59 1009.8